ECHOSTAR 15

导读

ECHOSTAR 15是美国EchoStar通信公司的商用通信卫星,由SS/Loral公司建造,基于1300型卫星平台研制,设计在轨寿命15年,于2010年7月10日发射升空。该卫星运行在地球静止轨道,服务DISH Network的直播到户(DTH)电视业务,助力拓展美国高清电视市场,强化付费电视领域的竞争优势,为用户提供稳定高质量的卫星电视服务。

Basic Information
目录编号:
36792
目录名称:
ECHOSTAR 15
国际标识:
2010-034A
轨道中心:
EARTH
卫星名称:
ECHOSTAR 15
卫星全名:
--
卫星状态:
在轨 (已飞行5911 天)
发射日期:
2010-07-10 UTC
国别 :
美国 (US)
星等 :
--
This satellite is enrolled in the Space Conjunction Data Service (SCDS) and the current flight risk assessment level is: No High Risk
Orbit Information
数据来源 国际轨道数据 AOE轨道数据
星历时间 2026-09-15T22:22:40+0800
8小时前
查看轨道信息
2026-09-12T17:00:00+0800
3天前
查看轨道信息
半长轴 42164.812km 42165.149km
偏心率 0.0002636 0.0002723
轨道倾角 0.033° 0.026°
近地点辐角 217.930° 248.271°
升交点赤经 280.938° 250.724°
平近点角 312.562° 228.595°
近地点 35775.56km 35775.53km
远地点 35797.79km 35798.494km
周期 1436.101分钟 1436.118分钟
每日圈数 1.002715 1.002703
Detailed Information
使用方式:
暂无
2D Orbit Map
3D Orbit Map
Orbit Altitude Analysis Chart
Orbit Inclination Analysis Chart
Orbit Comprehensive Analysis Chart
View Comprehensive Chart
Miss Distance Evolution Trend with All Objects Subscribe to Flight Safety Assessment
Collision Probability Evolution Trend with All Objects Subscribe to Flight Safety Assessment